Regional Weather Roundup
Issued by NWS

Home | Current Version | Previous Version | Graphics & Text | Print | Product List | Glossary On
Versions: 1 2 3 4 5 6 7 8 9 10 11 12 13 14 15 16 17 18 19 20 21 22 23 24 25 26 27 28 29 30 31 32 33 34 35 36 37 38 39 40 41 42 43 44 45 46 47 48
000
ASUS45 KCYS 022310
RWRWY

WYOMING REGIONAL WEATHER ROUNDUP
NATIONAL WEATHER SERVICE CHEYENNE WY
500 PM MDT WED SEP 02 2015

NOTE:  "FAIR" INDICATES FEW OR NO CLOUDS BELOW 12,000 FEET
WITH NO SIGNIFICANT WEATHER AND/OR OBSTRUCTIONS TO VISIBILITY.

WYZ001-030000-
YELLOWSTONE NATIONAL PARK

CITY           SKY/WX    TMP DP  RH WIND       PRES   REMARKS
LK YELLOWSTONE   N/A     71  30  21 SW12G21   30.10F
W YELLOWSTONE  NOT AVBL

$$
WYZ002>013-054>058-071-098>099-030000-
NORTHERN WYOMING

CITY           SKY/WX    TMP DP  RH WIND       PRES   REMARKS
JACKSON        MOSUNNY   81  34  18 SW17G31   30.00S
CODY           FAIR      88  30  12 SW10G20   29.82F
GREYBULL       FAIR      96  30   9 S17G24    29.72F HX  90
WORLAND        FAIR      94  31  10 SW10G22   29.77F
SHERIDAN       FAIR      96  25   8 S12       29.74F HX  90
BUFFALO        FAIR      92  27   9 SW9       29.86S
GILLETTE       FAIR      91  31  11 SW16G26   29.81F
HULETT         FAIR      95  32  11 W7G18     29.83F HX  90
NEWCASTLE      FAIR      95  27   8 SW12      29.84F

$$
WYZ014>020-022>026-101>103-030000-
CENTRAL WYOMING

CITY           SKY/WX    TMP DP  RH WIND       PRES   REMARKS
BIG PINEY      PTSUNNY   81  35  19 W23G29    30.08F
PINEDALE       LGT RAIN  73  34  23 S15       30.08S
DUBOIS         FAIR      77  27  15 W20       30.04S
LANDER         FAIR      88  28  11 S17G26    29.91F
RIVERTON       FAIR      87  29  12 SW16G29   29.91F
CASPER         FAIR      88  28  11 SW16      29.95F
DOUGLAS        FAIR      92  30  11 W16       29.93F

$$
WYZ021-027>030-104>119-030000-
SOUTHERN WYOMING

CITY           SKY/WX    TMP DP  RH WIND       PRES   REMARKS
EVANSTON       FAIR      80  32  17 SW22G35   30.11F
KEMMERER       FAIR      79  32  18 SW15G28   30.12S
FORT BRIDGER   CLEAR     81  28  15 W20G29    30.13F
ROCK SPRINGS   PTSUNNY   78  34  20 W8        30.07F
DIXON          FAIR      82  36  19 S12G17    30.13F
RAWLINS        FAIR      82  37  20 SW18G25   30.10F
SARATOGA       MOCLDY    79  37  22 S16       30.14F
LARAMIE        FAIR      78  36  21 W7        30.14F
CHEYENNE       FAIR      88  34  14 W6        30.05F
TORRINGTON     FAIR      93  39  15 VRB5      29.88S
PINE BLUFFS    FAIR      90  32  12 NW7       29.98F

$$


USA.gov is the U.S. government's official web portal to all federal, state and local government web resources and services.